SCP
0 0 0 0 0 0 0 0 0 0 0 0 0 0 0 0 0 0 0 0 0 0 0 0 0 0 0 0 0 0 0 0 0 0 0 0 0 0 0 0 0 0 0 0
0 0 0 0 0 0 0 0 0 0 0 0 0 0 0 0 0 0 0 0 0 0 0 0 0 0 0 0 0 0 0 0 0 0 0 0 0 0 0 0 0 0 0 0
0 0 0 0 0 0 0 0 0 0 0 0 0 0 0 0 0 0 0 0 0 0 0 0 0 0 0 0 0 0 0 0 0 0 0 0 0 0 0 0 0 0 0 0
0 0 0 0 0 0 0 0 0 0 0 0 0 0 0 0 0 0 0 0 0 0 0 0 0 0 0 0 0 0 0 0 0 0 0 0 0 0 0 0 0 0 0 0
0 0 0 0 0 0 0 0 0 0 0 0 0 0 0 0 0 0 0 0 0 0 0 0 0 0 0 0 0 0 0 0 0 0 0 0 0 0 0 0 0 0 0 0
0 0 0 0 0 0 0 0 0 0 0 0 0 0 0 0 0 0 0 0 0 0 0 0 0 0 0 0 0 0 0 0 0 0 0 0 0 0 0 0 0 0 0 0
0 0 0 0 0 0 0 0 0 0 0 0 0 0 0 0 0 0 0 0 0 0 0 0 0 0 0 0 0 0 0 0 0 0 0 0 0 0 0 0 0 0 0 0
0 0 0 0 0 0 0 0 0 0 0 0 0 0 0 0 0 0 0 0 0 0 0 0 0 0 0 0 0 0 0 0 0 0 0 0 0 0 0 0 0 0 0 0
0 0 0 0 0 0 0 0 0 0 0 0 0 0 0 0 0 0 0 0 0 0 0 0 0 0 0 0 0 0 0 0 0 0 0 0 0 0 0 0 0 0 0 0
0 0 0 0 0 0 0 0 0 0 0 0 0 0 0 0 0 0 0 0 0 0 0 0 0 0 0 0 0 0 0 0 0 0 0 0 0 0 0 0 0 0 0 0
0 0 0 0 0 0 0 0 0 0 0 0 0 0 0 0 0 0 0 0 0 0 0 0 0 0 0 0 0 0 0 0 0 0 0 0 0 0 0 0 0 0 0 0
0 0 0 0 0 0 0 0 0 0 0 0 0 0 0 0 0 0 0 0 0 0 0 0 0 0 0 0 0 0 0 0 0 0 0 0 0 0 0 0 0 0 0 0
0 0 0 0 0 0 0 0 0 0 0 0 0 0 0 0 0 0 0 0 0 0 0 0 0 0 0 0 0 0 0 0 0 0 0 0 0 0 0 0 0 0 0 0
0 0 0 0 0 0 0 0 0 0 0 0 0 0 0 0 0 0 0 0 0 0 0 0 0 0 0 0 0 0 0 0 0 0 0 0 0 0 0 0 0 0 0 0
0 0 0 0 0 0 0 0 0 0 0 0 0 0 0 0 0 0 0 0 0 0 0 0 0 0 0 0 0 0 0 0 0 0 0 0 0 0 0 0 0 0 0 0
0 0 0 0 0 0 0 0 0 0 0 0 0 0 0 0 0 0 0 0 0 0 0 0 0 0 0 0 0 0 0 0 0 0 0 0 0 0 0 0 0 0 0 0
0 0 0 0 0 0 0 0 0 0 0 0 0 0 0 0 0 0 0 0 0 0 0 0 0 0 0 0 0 0 0 0 0 0 0 0 0 0 0 0 0 0 0 0
0 0 0 0 0 0 0 0 0 0 0 0 0 0 0 0 0 0 0 0 0 0 0 0 0 0 0 0 0 0 0 0 0 0 0 0 0 0 0 0 0 0 0 0
0 0 0 0 0 0 0 0 0 0 0 0 0 0 0 0 0 0 0 0 0 0 0 0 0 0 0 0 0 0 0 0 0 0 0 0 0 0 0 0 0 0 0 0
0 0 0 0 0 0 0 0 0 0 0 0 0 0 0 0 0 0 0 0 0 0 0 0 0 0 0 0 0 0 0 0 0 0 0 0 0 0 0 0 0 0 0 0
0 0 0 0 0 0 0 0 0 0 0 0 0 0 0 0 0 0 0 0 0 0 0 0 0 0 0 0 0 0 0 0 0 0 0 0 0 0 0 0 0 0 0 0
0 0 0 0 0 0 0 0 0 0 0 0 0 0 0 0 0 0 0 0 0 0 0 0 0 0 0 0 0 0 0 0 0 0 0 0 0 0 0 0 0 0 0 0
0 0 0 0 0 0 0 0 0 0 0 0 0 0 0 0 0 0 0 0 0 0 0 0 0 0 0 0 0 0 0 0 0 0 0 0 0 0 0 0 0 0 0 0
0 0 0 0 0 0 0 0 0 0 0 0 0 0 0 0 0 0 0 0 0 0 0 0 0 0 0 0 0 0 0 0 0 0 0 0 0 0 0 0 0 0 0 0
0 0 0 0 0 0 0 0 0 0 0 0 0 0 0 0 0 0 0 0 0 0 0 0 0 0 0 0 0 0 0 0 0 0 0 0 0 0 0 0 0 0 0 0
0 0 0 0 0 0 0 0 0 0 0 0 0 0 0 0 0 0 0 0 0 0 0 0 0 0 0 0 0 0 0 0 0 0 0 0 0 0 0 0 0 0 0 0
0 0 0 0 0 0 0 0 0 0 0 0 0 0 0 0 0 0 0 0 0 0 0 0 0 0 0 0 0 0 0 0 0 0 0 0 0 0 0 0 0 0 0 0
Wind_Speed_500mb
45 19 9 13 19 31 39 57 23 66 35 53 33 19 39 47 47 39 33 37 45 48 53 60 67 75 80 84 89 91 92 93 93 93 92 94 92 86 80 75 69 63 58 54
36 32 21 22 16 40 57 52 53 63 51 10 5 33 17 54 58 50 49 50 54 55 58 63 68 73 80 86 92 95 96 97 97 95 96 95 91 86 81 76 71 67 61 57
32 27 19 21 62 56 37 43 48 50 77 13 32 21 48 67 63 58 65 65 68 68 67 65 66 72 78 86 91 95 97 98 99 98 96 93 90 86 83 79 74 69 66 59
24 5 25 42 42 39 49 51 42 50 63 36 34 58 74 79 55 75 77 73 74 72 71 65 64 67 75 84 89 94 100 102 100 95 93 91 89 86 82 80 75 70 64 56
19 30 30 25 22 19 23 56 51 57 61 62 62 37 85 64 83 87 81 77 70 71 66 63 62 64 70 77 84 92 100 101 98 94 93 92 89 86 83 80 67 73 60 60
10 12 24 21 5 25 15 28 48 34 50 56 26 16 42 28 41 48 51 58 61 63 66 65 62 59 60 71 78 85 93 95 90 91 92 89 87 85 81 69 66 67 67 59
30 25 11 11 10 17 20 16 8 32 58 36 18 28 32 9 15 25 30 32 35 39 38 41 43 44 52 59 64 65 70 79 84 86 86 86 80 75 68 68 67 71 76 66
14 21 35 13 5 21 7 5 1 3 12 20 29 30 34 34 38 27 20 17 17 18 22 23 25 30 37 38 37 43 50 59 67 73 74 67 64 72 70 58 68 83 75 75
16 11 17 48 24 28 6 7 4 11 13 15 12 14 11 10 9 7 8 10 15 16 21 23 23 26 29 30 30 32 36 39 42 45 50 55 58 56 57 67 81 81 75 72
2 10 9 22 34 21 24 16 9 9 9 10 7 7 6 8 11 13 16 15 17 21 22 24 25 24 20 19 23 25 28 30 31 36 39 43 48 56 64 67 68 67 66 65
9 9 9 31 38 36 25 20 17 10 10 10 8 12 11 14 14 13 14 17 18 18 21 22 24 27 26 23 21 22 24 24 27 28 31 34 39 44 48 51 54 54 54 53
9 4 7 8 28 45 35 25 15 15 12 11 13 15 18 22 22 21 23 26 27 26 26 31 31 30 28 26 23 20 19 20 22 24 27 30 34 39 43 46 47 50 52 53
7 7 8 8 14 24 35 28 22 14 4 7 14 18 21 29 31 32 33 33 32 35 34 34 33 29 25 20 16 15 15 16 18 21 25 29 32 36 40 41 47 51 54 56
16 11 7 12 12 18 29 26 26 24 12 10 12 16 25 34 39 36 35 36 35 35 33 30 26 22 18 16 15 15 17 19 21 24 28 32 34 37 40 44 44 43 42 43
12 24 19 19 23 32 32 24 21 21 25 27 29 30 30 35 36 35 34 33 31 29 26 24 22 21 19 19 20 21 23 24 26 29 33 36 38 39 40 40 39 40 40 40
6 14 22 25 26 29 34 31 30 31 30 36 36 38 35 31 29 28 29 28 27 24 23 22 20 19 19 21 22 23 24 25 26 27 29 30 31 32 33 32 32 32 33 34
18 20 27 29 28 32 33 32 31 31 29 29 30 29 27 24 22 21 21 21 21 20 20 20 20 20 21 21 22 23 23 24 25 25 26 27 28 28 28 28 28 29 31 33
20 21 23 29 33 35 34 32 30 28 25 24 23 21 20 18 15 15 14 14 13 13 15 18 19 21 21 22 22 23 23 23 24 24 25 25 26 27 27 28 30 31 32 33
25 25 28 28 29 28 29 27 25 23 23 22 19 18 17 15 13 14 13 12 13 13 13 14 14 15 17 19 20 21 22 22 22 23 24 25 28 29 30 30 31 32 32 33
26 25 25 25 26 26 25 24 22 20 19 17 15 15 15 16 14 10 8 8 9 11 11 13 15 16 17 18 17 18 19 21 22 25 26 27 28 28 28 29 30 32 33 35
26 27 26 26 25 25 22 20 18 18 19 19 16 16 14 13 10 7 6 3 2 4 6 8 10 13 15 17 19 20 21 22 23 24 24 25 26 27 30 33 35 35 35 35
26 26 28 27 28 31 31 30 27 28 27 25 24 22 18 16 13 9 6 3 2 2 5 9 12 14 15 16 17 18 18 19 21 23 25 28 31 33 34 35 35 36 36 36
34 35 37 36 37 41 42 39 36 31 30 29 26 23 17 15 12 9 4 1 3 6 9 12 14 15 16 17 19 21 23 26 30 32 33 34 34 35 36 36 37 37 38 38
41 40 42 42 41 39 41 40 33 30 25 24 20 17 14 12 8 6 3 1 4 8 11 13 16 18 21 25 28 30 32 33 34 36 37 38 38 39 38 38 39 39 41 42
42 42 39 36 35 38 35 33 27 26 22 18 15 13 9 5 3 2 5 7 10 14 18 21 24 26 28 30 32 34 36 38 39 41 40 39 39 40 40 42 44 44 45 46
40 40 36 32 33 30 27 22 17 19 17 12 9 7 5 4 6 8 11 14 17 21 24 27 29 32 34 36 38 39 41 41 42 43 43 44 45 46 47 48 49 50 50 50
40 35 31 29 27 24 20 17 12 11 9 7 6 6 7 9 12 15 18 21 23 26 28 31 33 36 38 40 41 43 45 47 47 49 50 51 52 53 53 54 55 54 54 53
Wind_Direction_500mb
246 249 203 202 191 193 208 224 199 252 237 254 236 227 244 259 271 256 246 249 247 239 231 230 228 227 227 226 224 222 221 219 217 214 212 210 209 209 210 210 211 214 216 215
254 241 239 246 228 213 213 222 234 253 264 135 231 240 236 252 252 252 248 251 253 252 246 237 233 232 229 227 224 221 220 219 217 215 213 211 211 212 213 213 214 217 218 220
253 244 232 254 239 235 228 227 218 241 247 213 260 236 246 258 256 250 264 263 259 258 258 252 243 234 234 230 226 222 220 218 217 215 214 213 213 214 215 216 217 219 222 223
246 177 225 239 258 234 229 236 228 248 260 238 236 251 260 261 261 269 266 266 262 263 261 259 251 241 235 232 230 224 220 219 217 215 215 215 216 217 218 218 221 227 226 234
228 242 250 287 248 174 189 245 227 226 249 260 254 263 270 265 269 271 273 271 266 266 261 258 254 247 235 231 229 224 222 221 219 217 218 218 219 220 220 221 226 230 231 240
207 236 235 251 220 172 130 253 246 213 241 252 232 243 265 275 276 278 277 271 265 260 259 254 250 242 232 228 227 225 223 222 223 223 223 224 225 224 223 223 241 231 238 237
228 244 264 249 201 148 166 244 352 209 227 253 207 230 255 290 280 291 282 266 261 256 250 247 241 232 225 224 226 227 226 225 225 225 227 229 228 226 223 245 232 233 248 243
224 237 238 154 98 170 208 277 276 266 257 253 254 252 259 268 272 271 264 258 238 226 219 213 217 217 217 217 215 217 222 225 228 230 232 228 222 231 242 232 234 241 246 249
196 195 204 187 197 205 250 253 313 286 273 247 247 254 253 240 231 222 195 176 163 169 174 173 180 187 187 190 194 201 208 215 222 224 225 227 227 229 231 231 236 248 253 256
103 240 220 229 225 221 205 197 215 252 261 217 231 212 189 170 169 163 153 152 159 162 164 164 161 167 177 190 197 199 202 209 215 223 226 228 231 234 237 242 246 250 252 251
267 281 310 251 235 224 218 198 187 192 222 208 200 196 179 179 180 169 157 148 144 153 155 152 152 156 163 168 175 180 184 193 203 209 215 221 227 233 238 242 246 249 252 255
234 262 259 335 243 217 210 199 178 185 196 207 210 199 174 165 162 157 154 150 146 146 150 148 149 151 150 153 158 171 186 199 209 218 222 227 233 238 241 242 243 248 252 255
212 221 190 308 293 230 219 185 176 155 112 234 212 190 179 167 155 150 146 143 144 142 144 144 146 150 154 166 180 194 203 212 219 227 233 239 242 243 245 247 248 252 255 257
228 205 259 258 281 228 186 197 227 214 239 209 217 170 159 153 142 144 144 145 148 151 154 157 162 168 177 189 207 221 229 232 237 242 244 245 246 246 246 249 253 255 260 263
216 210 232 214 194 183 194 194 181 172 176 160 140 140 146 145 144 148 152 158 164 170 176 182 191 198 207 219 229 236 241 246 248 250 250 249 249 248 248 248 249 251 252 259
201 196 185 179 173 169 167 158 170 152 152 147 148 149 153 155 155 159 168 177 186 197 204 211 220 231 243 249 250 254 258 259 260 260 259 256 254 251 249 246 245 247 252 256
171 146 150 147 149 151 157 160 161 155 153 150 147 146 151 159 168 175 186 195 206 216 223 232 243 250 255 258 262 264 266 266 267 265 260 257 253 250 249 249 250 253 257 260
178 167 160 149 140 141 140 144 147 148 153 153 153 154 160 166 176 188 199 212 224 237 245 251 254 256 259 263 266 267 267 267 265 261 258 255 252 252 253 256 259 261 262 261
170 162 158 155 148 148 147 149 153 157 159 162 165 172 175 179 187 199 207 217 229 239 246 255 264 270 272 274 274 274 273 270 266 262 259 258 259 259 259 259 259 260 262 265
169 166 163 163 158 153 151 151 153 157 160 163 174 177 179 176 177 186 205 226 236 248 250 257 263 268 271 272 270 265 263 263 263 263 262 261 260 261 262 262 263 266 269 271
156 153 154 154 153 146 145 146 147 151 150 147 146 149 149 148 151 156 163 175 218 263 279 283 282 279 276 274 273 272 271 269 267 266 265 264 265 266 267 268 269 270 272 274
143 142 139 137 137 134 129 125 126 126 123 123 119 109 103 103 98 92 86 73 110 261 267 269 271 270 270 270 270 270 269 268 267 266 266 267 268 269 270 272 273 274 273 274
132 130 128 127 128 125 121 118 115 114 115 112 109 105 103 100 98 96 84 167 258 267 268 273 275 275 275 274 275 275 275 274 274 274 275 276 276 276 274 273 273 273 274 275
124 122 122 120 118 121 122 114 115 113 111 110 110 110 107 101 91 81 85 257 267 266 270 272 274 276 278 280 281 282 282 281 281 280 280 279 278 276 276 275 274 275 276 276
122 119 115 118 122 112 111 110 114 111 107 105 102 99 91 72 23 337 297 287 282 282 284 283 283 284 284 284 282 280 280 280 279 279 279 277 276 275 275 275 276 276 276 277
120 119 118 117 110 107 105 102 107 108 105 102 90 74 45 0 330 309 299 294 291 289 286 285 285 285 284 283 283 283 282 281 280 278 277 276 275 275 275 275 275 275 274 274
116 113 113 110 105 103 103 99 89 86 76 54 28 359 333 321 312 306 303 300 298 296 294 292 290 289 287 286 285 284 282 280 280 279 277 276 275 275 275 275 275 274 274 274
Wind_Speed_850mb
45 19 9 13 19 31 39 57 23 66 35 53 33 19 39 47 47 39 33 37 45 48 53 60 67 75 80 84 89 91 92 93 93 93 92 94 92 86 80 75 69 63 58 54
36 32 21 22 16 40 57 52 53 63 51 10 5 33 17 54 58 50 49 50 54 55 58 63 68 73 80 86 92 95 96 97 97 95 96 95 91 86 81 76 71 67 61 57
32 27 19 21 62 56 37 43 48 50 77 13 32 21 48 67 63 58 65 65 68 68 67 65 66 72 78 86 91 95 97 98 99 98 96 93 90 86 83 79 74 69 66 59
24 5 25 42 42 39 49 51 42 50 63 36 34 58 74 79 55 75 77 73 74 72 71 65 64 67 75 84 89 94 100 102 100 95 93 91 89 86 82 80 75 70 64 56
19 30 30 25 22 19 23 56 51 57 61 62 62 37 85 64 83 87 81 77 70 71 66 63 62 64 70 77 84 92 100 101 98 94 93 92 89 86 83 80 67 73 60 60
10 12 24 21 5 25 15 28 48 34 50 56 26 16 42 28 41 48 51 58 61 63 66 65 62 59 60 71 78 85 93 95 90 91 92 89 87 85 81 69 66 67 67 59
30 25 11 11 10 17 20 16 8 32 58 36 18 28 32 9 15 25 30 32 35 39 38 41 43 44 52 59 64 65 70 79 84 86 86 86 80 75 68 68 67 71 76 66
14 21 35 13 5 21 7 5 1 3 12 20 29 30 34 34 38 27 20 17 17 18 22 23 25 30 37 38 37 43 50 59 67 73 74 67 64 72 70 58 68 83 75 75
16 11 17 48 24 28 6 7 4 11 13 15 12 14 11 10 9 7 8 10 15 16 21 23 23 26 29 30 30 32 36 39 42 45 50 55 58 56 57 67 81 81 75 72
2 10 9 22 34 21 24 16 9 9 9 10 7 7 6 8 11 13 16 15 17 21 22 24 25 24 20 19 23 25 28 30 31 36 39 43 48 56 64 67 68 67 66 65
9 9 9 31 38 36 25 20 17 10 10 10 8 12 11 14 14 13 14 17 18 18 21 22 24 27 26 23 21 22 24 24 27 28 31 34 39 44 48 51 54 54 54 53
9 4 7 8 28 45 35 25 15 15 12 11 13 15 18 22 22 21 23 26 27 26 26 31 31 30 28 26 23 20 19 20 22 24 27 30 34 39 43 46 47 50 52 53
7 7 8 8 14 24 35 28 22 14 4 7 14 18 21 29 31 32 33 33 32 35 34 34 33 29 25 20 16 15 15 16 18 21 25 29 32 36 40 41 47 51 54 56
16 11 7 12 12 18 29 26 26 24 12 10 12 16 25 34 39 36 35 36 35 35 33 30 26 22 18 16 15 15 17 19 21 24 28 32 34 37 40 44 44 43 42 43
12 24 19 19 23 32 32 24 21 21 25 27 29 30 30 35 36 35 34 33 31 29 26 24 22 21 19 19 20 21 23 24 26 29 33 36 38 39 40 40 39 40 40 40
6 14 22 25 26 29 34 31 30 31 30 36 36 38 35 31 29 28 29 28 27 24 23 22 20 19 19 21 22 23 24 25 26 27 29 30 31 32 33 32 32 32 33 34
18 20 27 29 28 32 33 32 31 31 29 29 30 29 27 24 22 21 21 21 21 20 20 20 20 20 21 21 22 23 23 24 25 25 26 27 28 28 28 28 28 29 31 33
20 21 23 29 33 35 34 32 30 28 25 24 23 21 20 18 15 15 14 14 13 13 15 18 19 21 21 22 22 23 23 23 24 24 25 25 26 27 27 28 30 31 32 33
25 25 28 28 29 28 29 27 25 23 23 22 19 18 17 15 13 14 13 12 13 13 13 14 14 15 17 19 20 21 22 22 22 23 24 25 28 29 30 30 31 32 32 33
26 25 25 25 26 26 25 24 22 20 19 17 15 15 15 16 14 10 8 8 9 11 11 13 15 16 17 18 17 18 19 21 22 25 26 27 28 28 28 29 30 32 33 35
26 27 26 26 25 25 22 20 18 18 19 19 16 16 14 13 10 7 6 3 2 4 6 8 10 13 15 17 19 20 21 22 23 24 24 25 26 27 30 33 35 35 35 35
26 26 28 27 28 31 31 30 27 28 27 25 24 22 18 16 13 9 6 3 2 2 5 9 12 14 15 16 17 18 18 19 21 23 25 28 31 33 34 35 35 36 36 36
34 35 37 36 37 41 42 39 36 31 30 29 26 23 17 15 12 9 4 1 3 6 9 12 14 15 16 17 19 21 23 26 30 32 33 34 34 35 36 36 37 37 38 38
41 40 42 42 41 39 41 40 33 30 25 24 20 17 14 12 8 6 3 1 4 8 11 13 16 18 21 25 28 30 32 33 34 36 37 38 38 39 38 38 39 39 41 42
42 42 39 36 35 38 35 33 27 26 22 18 15 13 9 5 3 2 5 7 10 14 18 21 24 26 28 30 32 34 36 38 39 41 40 39 39 40 40 42 44 44 45 46
40 40 36 32 33 30 27 22 17 19 17 12 9 7 5 4 6 8 11 14 17 21 24 27 29 32 34 36 38 39 41 41 42 43 43 44 45 46 47 48 49 50 50 50
40 35 31 29 27 24 20 17 12 11 9 7 6 6 7 9 12 15 18 21 23 26 28 31 33 36 38 40 41 43 45 47 47 49 50 51 52 53 53 54 55 54 54 53
Wind_Direction_850mb
246 249 203 202 191 193 208 224 199 252 237 254 236 227 244 259 271 256 246 249 247 239 231 230 228 227 227 226 224 222 221 219 217 214 212 210 209 209 210 210 211 214 216 215
254 241 239 246 228 213 213 222 234 253 264 135 231 240 236 252 252 252 248 251 253 252 246 237 233 232 229 227 224 221 220 219 217 215 213 211 211 212 213 213 214 217 218 220
253 244 232 254 239 235 228 227 218 241 247 213 260 236 246 258 256 250 264 263 259 258 258 252 243 234 234 230 226 222 220 218 217 215 214 213 213 214 215 216 217 219 222 223
246 177 225 239 258 234 229 236 228 248 260 238 236 251 260 261 261 269 266 266 262 263 261 259 251 241 235 232 230 224 220 219 217 215 215 215 216 217 218 218 221 227 226 234
228 242 250 287 248 174 189 245 227 226 249 260 254 263 270 265 269 271 273 271 266 266 261 258 254 247 235 231 229 224 222 221 219 217 218 218 219 220 220 221 226 230 231 240
207 236 235 251 220 172 130 253 246 213 241 252 232 243 265 275 276 278 277 271 265 260 259 254 250 242 232 228 227 225 223 222 223 223 223 224 225 224 223 223 241 231 238 237
228 244 264 249 201 148 166 244 352 209 227 253 207 230 255 290 280 291 282 266 261 256 250 247 241 232 225 224 226 227 226 225 225 225 227 229 228 226 223 245 232 233 248 243
224 237 238 154 98 170 208 277 276 266 257 253 254 252 259 268 272 271 264 258 238 226 219 213 217 217 217 217 215 217 222 225 228 230 232 228 222 231 242 232 234 241 246 249
196 195 204 187 197 205 250 253 313 286 273 247 247 254 253 240 231 222 195 176 163 169 174 173 180 187 187 190 194 201 208 215 222 224 225 227 227 229 231 231 236 248 253 256
103 240 220 229 225 221 205 197 215 252 261 217 231 212 189 170 169 163 153 152 159 162 164 164 161 167 177 190 197 199 202 209 215 223 226 228 231 234 237 242 246 250 252 251
267 281 310 251 235 224 218 198 187 192 222 208 200 196 179 179 180 169 157 148 144 153 155 152 152 156 163 168 175 180 184 193 203 209 215 221 227 233 238 242 246 249 252 255
234 262 259 335 243 217 210 199 178 185 196 207 210 199 174 165 162 157 154 150 146 146 150 148 149 151 150 153 158 171 186 199 209 218 222 227 233 238 241 242 243 248 252 255
212 221 190 308 293 230 219 185 176 155 112 234 212 190 179 167 155 150 146 143 144 142 144 144 146 150 154 166 180 194 203 212 219 227 233 239 242 243 245 247 248 252 255 257
228 205 259 258 281 228 186 197 227 214 239 209 217 170 159 153 142 144 144 145 148 151 154 157 162 168 177 189 207 221 229 232 237 242 244 245 246 246 246 249 253 255 260 263
216 210 232 214 194 183 194 194 181 172 176 160 140 140 146 145 144 148 152 158 164 170 176 182 191 198 207 219 229 236 241 246 248 250 250 249 249 248 248 248 249 251 252 259
201 196 185 179 173 169 167 158 170 152 152 147 148 149 153 155 155 159 168 177 186 197 204 211 220 231 243 249 250 254 258 259 260 260 259 256 254 251 249 246 245 247 252 256
171 146 150 147 149 151 157 160 161 155 153 150 147 146 151 159 168 175 186 195 206 216 223 232 243 250 255 258 262 264 266 266 267 265 260 257 253 250 249 249 250 253 257 260
178 167 160 149 140 141 140 144 147 148 153 153 153 154 160 166 176 188 199 212 224 237 245 251 254 256 259 263 266 267 267 267 265 261 258 255 252 252 253 256 259 261 262 261
170 162 158 155 148 148 147 149 153 157 159 162 165 172 175 179 187 199 207 217 229 239 246 255 264 270 272 274 274 274 273 270 266 262 259 258 259 259 259 259 259 260 262 265
169 166 163 163 158 153 151 151 153 157 160 163 174 177 179 176 177 186 205 226 236 248 250 257 263 268 271 272 270 265 263 263 263 263 262 261 260 261 262 262 263 266 269 271
156 153 154 154 153 146 145 146 147 151 150 147 146 149 149 148 151 156 163 175 218 263 279 283 282 279 276 274 273 272 271 269 267 266 265 264 265 266 267 268 269 270 272 274
143 142 139 137 137 134 129 125 126 126 123 123 119 109 103 103 98 92 86 73 110 261 267 269 271 270 270 270 270 270 269 268 267 266 266 267 268 269 270 272 273 274 273 274
132 130 128 127 128 125 121 118 115 114 115 112 109 105 103 100 98 96 84 167 258 267 268 273 275 275 275 274 275 275 275 274 274 274 275 276 276 276 274 273 273 273 274 275
124 122 122 120 118 121 122 114 115 113 111 110 110 110 107 101 91 81 85 257 267 266 270 272 274 276 278 280 281 282 282 281 281 280 280 279 278 276 276 275 274 275 276 276
122 119 115 118 122 112 111 110 114 111 107 105 102 99 91 72 23 337 297 287 282 282 284 283 283 284 284 284 282 280 280 280 279 279 279 277 276 275 275 275 276 276 276 277
120 119 118 117 110 107 105 102 107 108 105 102 90 74 45 0 330 309 299 294 291 289 286 285 285 285 284 283 283 283 282 281 280 278 277 276 275 275 275 275 275 275 274 274
116 113 113 110 105 103 103 99 89 86 76 54 28 359 333 321 312 306 303 300 298 296 294 292 290 289 287 286 285 284 282 280 280 279 277 276 275 275 275 275 275 274 274 274